Location: Dos Palmas
(32.4468°N, 116.8732°W)
Time: 14:27:27
(UTC+00:00)

Delta 128 - Pass Details

Date: 20 June 2021
Orbit: 608 x 1216 km, 28.0° (Epoch: 26 July)

Event Time Altitude Azimuth Distance (km) Brightness Sun altitude
Rises 04:46:24 0° 267° (W) 2,857 7.6 -19.1°
Reaches altitude 10° 04:48:52 10° 257° (WSW) 1,945 6.5 -19.5°
Maximum altitude 04:52:52 32° 193° (SSW) 1,046 4.4 -20.1°
Enters shadow 04:52:54 32° 192° (SSW) 1,047 4.4 -20.1°
